Glen Ullin Rgnl, Glen Ullin,, ND

12:30 AM MDT on April 28, 2017 (GMT -0600)
Glen Ullin Rgnl, Glen Ullin,

Weather History for KD57 - April, 2014

Change the Weather History Date:

Saturday, April 19, 2014

  Actual Average (KDIK) Record (KDIK)
Temperature  
Mean Temperature 46 °F -  
Max Temperature 62 °F 56 °F 88 °F (1926)
Min Temperature 28 °F 33 °F 9 °F (2002)
Degree Days  
Heating Degree Days 19    
Moisture  
Dew Point 30 °F    
Average Humidity 57    
Maximum Humidity 93    
Minimum Humidity 30    
Precipitation  
Precipitation 0.00 in - - ()
Sea Level Pressure  
Sea Level Pressure 29.88 in    
Wind  
Wind Speed 14 mph (WNW)    
Max Wind Speed 25 mph    
Max Gust Speed 36 mph    
Visibility 10 miles    
Events      
Averages and records for this station are not official NWS values.
T = Trace of Precipitation, MM = Missing Value Source: NWS Daily Summary

Daily Weather History Graph

Daily Weather History Graph

Search for Another Location

Airport or City:

Trip Planner

Search our weather history database for the weather conditions in past years. The results will help you decide how hot, cold, wet, or windy it might be!

Date:

Astronomy

Apr. 19, 2014 Rise Set
Actual Time 5:52 AM MDT 7:41 PM MDT
Civil Twilight 5:20 AM MDT 8:13 PM MDT
Nautical Twilight 4:40 AM MDT 8:53 PM MDT
Astronomical Twilight 3:57 AM MDT 9:36 PM MDT
Moon No Moon Rise 9:04 AM MDT (4/19)
Length of Visible Light 14h 53m
Length of Day
13h 48m
Waning Gibbous, 78% of the Moon is Illuminated
Apr 19
Waning Gibbous
Apr 22
Last Quarter
Apr 29
New
May 6
First Quarter
May 14
Full

Hourly Weather History & Observations

Time (MDT) Temp. Windchill Dew Point Humidity Pressure Visibility Wind Dir Wind Speed Gust Speed Precip Events Conditions
12:15 AM 44.6 °F 35.9 °F 41.0 °F 87% 29.75 in 10.0 mi WNW 23.0 mph 35.7 mph N/A   Overcast
12:35 AM 44.6 °F 36.1 °F 37.4 °F 76% 29.76 in 10.0 mi NW 21.9 mph 29.9 mph N/A   Scattered Clouds
12:55 AM 42.8 °F 34.0 °F 37.4 °F 81% 29.76 in 10.0 mi NW 20.7 mph 27.6 mph N/A   Clear
1:15 AM 41.0 °F 33.9 °F 35.6 °F 81% 29.74 in 10.0 mi NW 12.7 mph 20.7 mph N/A   Clear
1:35 AM 37.4 °F 31.4 °F 33.8 °F 87% 29.74 in 10.0 mi WNW 8.1 mph - N/A   Clear
1:55 AM 35.6 °F 30.7 °F 32.0 °F 87% 29.75 in 10.0 mi WNW 5.8 mph - N/A   Clear
2:15 AM 32.0 °F 27.5 °F 30.2 °F 93% 29.76 in 10.0 mi WNW 4.6 mph - N/A   Clear
2:35 AM 33.8 °F 29.6 °F 32.0 °F 93% 29.78 in 10.0 mi West 4.6 mph - N/A   Clear
2:55 AM 35.6 °F 29.9 °F 32.0 °F 87% 29.77 in 10.0 mi West 6.9 mph - N/A   Clear
3:15 AM 33.8 °F 25.8 °F 30.2 °F 87% 29.78 in 10.0 mi WNW 10.4 mph - N/A   Clear
3:35 AM 33.8 °F 28.6 °F 30.2 °F 87% 29.78 in 10.0 mi NW 5.8 mph 13.8 mph N/A   Clear
3:55 AM 35.6 °F 28.6 °F 30.2 °F 81% 29.79 in 10.0 mi WNW 9.2 mph - N/A   Clear
4:15 AM 35.6 °F 28.6 °F 30.2 °F 81% 29.79 in 10.0 mi West 9.2 mph - N/A   Clear
4:35 AM 35.6 °F - 30.2 °F 81% 29.80 in 10.0 mi Calm Calm - N/A   Clear
4:55 AM 37.4 °F 33.8 °F 30.2 °F 75% 29.80 in 10.0 mi West 4.6 mph 11.5 mph N/A   Clear
5:15 AM 33.8 °F 29.6 °F 28.4 °F 81% 29.80 in 10.0 mi West 4.6 mph - N/A   Clear
5:35 AM 37.4 °F 29.3 °F 28.4 °F 70% 29.80 in 10.0 mi West 12.7 mph - N/A   Clear
5:55 AM 37.4 °F 29.8 °F 28.4 °F 70% 29.81 in 10.0 mi West 11.5 mph 17.3 mph N/A   Clear
6:15 AM 35.6 °F 25.5 °F 28.4 °F 75% 29.82 in 10.0 mi WSW 17.3 mph - N/A   Clear
6:35 AM 37.4 °F 28.9 °F 26.6 °F 65% 29.83 in 10.0 mi WSW 13.8 mph 19.6 mph N/A   Clear
6:55 AM 39.2 °F 31.2 °F 28.4 °F 65% 29.84 in 10.0 mi WSW 13.8 mph - N/A   Clear
7:15 AM 41.0 °F 33.9 °F 28.4 °F 61% 29.85 in 10.0 mi WSW 12.7 mph - N/A   Clear
7:35 AM 42.8 °F 36.2 °F 28.4 °F 57% 29.86 in 10.0 mi WSW 12.7 mph - N/A   Clear
7:55 AM 44.6 °F 37.8 °F 28.4 °F 53% 29.86 in 10.0 mi WSW 15.0 mph - N/A   Clear
8:15 AM 46.4 °F 39.2 °F 28.4 °F 50% 29.87 in 10.0 mi West 18.4 mph 24.2 mph N/A   Clear
8:35 AM 48.2 °F - 28.4 °F 46% 29.88 in 10.0 mi West 17.3 mph 25.3 mph N/A   Clear
8:55 AM 50.0 °F - 28.4 °F 43% 29.88 in 10.0 mi WNW 25.3 mph 35.7 mph N/A   Clear
9:15 AM 51.8 °F - 28.4 °F 41% 29.88 in 10.0 mi West 24.2 mph 32.2 mph N/A   Clear
9:35 AM 51.8 °F - 28.4 °F 41% 29.89 in 10.0 mi WNW 24.2 mph 31.1 mph N/A   Clear
9:55 AM 53.6 °F - 28.4 °F 38% 29.89 in 10.0 mi WNW 24.2 mph 32.2 mph N/A   Clear
10:15 AM 53.6 °F - 28.4 °F 38% 29.89 in 10.0 mi WNW 24.2 mph 31.1 mph N/A   Clear
10:35 AM 55.4 °F - 30.2 °F 38% 29.90 in 10.0 mi West 25.3 mph 31.1 mph N/A   Clear
10:55 AM 55.4 °F - 30.2 °F 38% 29.90 in 10.0 mi WNW 23.0 mph 34.5 mph N/A   Clear
11:15 AM 55.4 °F - 30.2 °F 38% 29.90 in 10.0 mi West 24.2 mph 31.1 mph N/A   Clear
11:35 AM 57.2 °F - 30.2 °F 36% 29.91 in 10.0 mi West 25.3 mph 32.2 mph N/A   Clear
11:55 AM 57.2 °F - 30.2 °F 36% 29.91 in 10.0 mi WNW 20.7 mph 31.1 mph N/A   Clear
12:15 PM 57.2 °F - 32.0 °F 38% 29.91 in 10.0 mi West 20.7 mph 26.5 mph N/A   Clear
12:35 PM 59.0 °F - 32.0 °F 36% 29.92 in 10.0 mi West 19.6 mph - N/A   Partly Cloudy
12:55 PM 59.0 °F - 32.0 °F 36% 29.92 in 10.0 mi West 24.2 mph 29.9 mph N/A   Scattered Clouds
1:15 PM 60.8 °F - 32.0 °F 34% 29.92 in 10.0 mi West 20.7 mph 31.1 mph N/A   Partly Cloudy
1:35 PM 60.8 °F - 32.0 °F 34% 29.92 in 10.0 mi West 23.0 mph 29.9 mph N/A   Clear
1:55 PM 60.8 °F - 33.8 °F 36% 29.92 in 10.0 mi West 23.0 mph 31.1 mph N/A   Clear
2:15 PM 60.8 °F - 33.8 °F 36% 29.92 in 10.0 mi West 23.0 mph - N/A   Clear
2:35 PM 60.8 °F - 33.8 °F 36% 29.93 in 10.0 mi WNW 17.3 mph 29.9 mph N/A   Clear
2:55 PM 60.8 °F - 32.0 °F 34% 29.94 in 10.0 mi WNW 17.3 mph 26.5 mph N/A   Clear
3:15 PM 62.6 °F - 32.0 °F 32% 29.93 in 10.0 mi WNW 21.9 mph - N/A   Clear
3:35 PM 62.6 °F - 32.0 °F 32% 29.93 in 10.0 mi WNW 16.1 mph 25.3 mph N/A   Clear
3:55 PM 62.6 °F - 32.0 °F 32% 29.93 in 10.0 mi WNW 18.4 mph 24.2 mph N/A   Clear
4:15 PM 62.6 °F - 32.0 °F 32% 29.93 in 10.0 mi WNW 20.7 mph 26.5 mph N/A   Clear
4:35 PM 62.6 °F - 32.0 °F 32% 29.92 in 10.0 mi WNW 16.1 mph 31.1 mph N/A   Clear
4:55 PM 62.6 °F - 30.2 °F 30% 29.92 in 10.0 mi WNW 16.1 mph - N/A   Clear
5:15 PM 62.6 °F - 30.2 °F 30% 29.93 in 10.0 mi WNW 17.3 mph - N/A   Clear
5:35 PM 62.6 °F - 30.2 °F 30% 29.93 in 10.0 mi NW 13.8 mph - N/A   Clear
5:55 PM 60.8 °F - 30.2 °F 31% 29.94 in 10.0 mi West 12.7 mph - N/A   Clear
6:15 PM 60.8 °F - 30.2 °F 31% 29.94 in 10.0 mi WNW 13.8 mph - N/A   Partly Cloudy
6:35 PM 60.8 °F - 30.2 °F 31% 29.94 in 10.0 mi WNW 9.2 mph - N/A   Partly Cloudy
6:55 PM 59.0 °F - 30.2 °F 34% 29.94 in 10.0 mi WNW 6.9 mph - N/A   Partly Cloudy
7:15 PM 57.2 °F - 30.2 °F 36% 29.94 in 10.0 mi WNW 5.8 mph - N/A   Clear
7:35 PM 51.8 °F - 30.2 °F 44% 29.94 in 10.0 mi NNW 4.6 mph - N/A   Clear
7:55 PM 48.2 °F - 30.2 °F 50% 29.94 in 10.0 mi Calm Calm - N/A   Clear
8:15 PM 44.6 °F - 30.2 °F 57% 29.94 in 10.0 mi Calm Calm - N/A   Clear
8:35 PM 42.8 °F - 30.2 °F 61% 29.95 in 10.0 mi Calm Calm - N/A   Clear
8:55 PM 39.2 °F 35.9 °F 30.2 °F 70% 29.95 in 10.0 mi SSE 4.6 mph - N/A   Clear
9:15 PM 39.2 °F 37.0 °F 28.4 °F 65% 29.95 in 10.0 mi SSE 3.5 mph - N/A   Clear
9:35 PM 32.0 °F - 26.6 °F 80% 29.96 in 10.0 mi Calm Calm - N/A   Clear
9:55 PM 32.0 °F - 28.4 °F 87% 29.96 in 10.0 mi Calm Calm - N/A   Clear
10:15 PM 33.8 °F - 26.6 °F 75% 29.96 in 10.0 mi Calm Calm - N/A   Clear
10:35 PM 30.2 °F - 26.6 °F 86% 29.96 in 10.0 mi Calm Calm - N/A   Clear
10:55 PM 30.2 °F - 26.6 °F 86% 29.96 in 10.0 mi Calm Calm - N/A   Clear
11:15 PM 30.2 °F - 26.6 °F 86% 29.96 in 10.0 mi Calm Calm - N/A   Clear
11:35 PM 32.0 °F - 26.6 °F 80% 29.95 in 10.0 mi Calm Calm - N/A   Clear
11:55 PM 28.4 °F - 24.8 °F 86% 29.96 in 10.0 mi Calm Calm - N/A   Clear